Temperature
12 12 13 13 13 13 13 13 14 14 14 14 14 14 14 14 14 14 14 14 14 14 14 14 14 14 14 14 14 14 14 14 14 14 14 14 15 15 15 15 15 15 15
12 12 12 12 13 13 13 13 13 13 13 13 13 14 14 14 14 14 14 14 14 14 14 14 14 14 14 14 14 14 14 14 14 14 14 14 14 14 14 14 14 14 14
12 12 12 12 12 12 13 13 13 13 13 13 13 13 13 14 14 14 14 14 14 14 14 14 14 14 14 14 14 14 14 14 14 13 14 14 14 14 14 14 14 14 14
12 12 12 12 12 12 12 12 13 13 13 13 13 13 13 13 14 14 14 14 14 14 14 14 14 14 14 14 14 14 14 14 13 13 13 13 14 14 14 14 13 13 13
12 12 11 11 11 12 12 12 12 12 13 13 13 13 13 13 13 13 14 14 14 14 14 14 14 14 14 14 14 14 14 14 13 13 13 13 13 13 13 13 13 13 13
11 11 11 11 11 11 11 11 12 12 12 12 13 13 13 13 13 13 13 13 13 14 14 14 14 14 14 14 14 14 13 13 13 13 13 13 13 13 13 13 13 13 13
11 11 11 11 11 11 11 11 11 11 11 12 12 12 12 12 13 13 13 13 13 13 13 13 13 13 14 14 14 13 13 13 13 13 13 13 13 13 13 13 13 13 12
11 11 11 10 10 10 10 11 11 11 11 11 11 12 12 12 12 12 13 13 13 13 13 13 13 13 13 13 13 13 13 13 13 13 13 13 13 13 13 12 12 12 12
11 11 10 10 10 10 10 10 10 10 11 11 11 11 11 12 12 12 12 12 13 13 13 13 13 13 13 13 13 13 13 13 13 13 13 13 13 12 12 12 12 12 12
11 11 11 10 10 10 10 10 10 10 10 10 11 11 11 11 11 12 12 12 12 12 12 12 12 13 13 13 13 13 13 13 13 13 12 12 12 12 12 12 12 12 12
11 11 11 10 10 10 10 10 10 10 10 10 10 10 11 11 11 11 11 12 12 12 12 12 12 12 12 13 13 13 13 12 12 12 12 12 12 12 12 12 12 12 11
11 11 11 10 10 10 10 10 10 10 10 10 10 10 10 10 11 11 11 11 11 11 11 11 12 12 12 12 12 12 12 12 12 12 12 11 11 11 11 11 11 11 11
11 11 11 10 10 10 10 10 10 10 10 10 10 10 10 10 10 10 10 11 11 11 11 11 11 11 11 11 12 12 11 11 11 11 11 11 11 11 10 10 10 10 10
11 11 11 10 10 10 10 10 10 10 10 10 10 9 9 10 10 10 10 10 10 10 10 10 10 11 11 11 11 11 11 10 10 10 10 10 10 10 10 10 10 10 10
12 11 11 10 10 10 10 10 10 10 9 9 9 9 10 10 9 9 10 10 10 10 10 10 10 10 10 10 10 10 10 10 10 10 10 10 10 9 9 9 9 9 9
12 11 11 11 10 10 10 10 10 10 9 9 9 9 9 9 9 9 9 10 10 9 9 9 9 9 9 9 9 9 9 9 9 9 9 9 9 9 9 9 9 8 8
12 12 11 11 10 10 10 10 10 10 9 10 10 9 9 9 9 9 9 9 9 9 9 9 9 9 9 9 9 9 9 8 8 8 8 8 8 8 8 8 8 8 8
12 12 11 11 11 10 10 10 10 10 10 10 10 10 9 9 9 9 9 9 9 9 9 9 9 9 9 8 8 8 8 8 8 8 8 8 8 8 8 8 7 7 7
13 12 12 11 11 11 11 10 10 10 10 10 10 10 9 9 9 9 9 9 9 9 9 9 8 8 8 8 8 8 8 8 8 7 7 7 7 7 7 7 7 7 7
13 12 12 12 11 11 11 11 10 10 10 10 10 10 10 9 9 9 9 9 9 9 9 9 9 8 8 8 8 8 8 8 7 7 7 7 7 7 7 6 6 6 6
13 12 12 12 12 11 11 11 11 11 10 10 10 10 10 9 9 9 9 9 9 9 9 9 9 9 8 8 8 8 8 7 7 7 7 6 6 6 6 6 6 6 6
13 12 12 12 12 12 11 11 11 11 11 10 10 10 10 10 9 9 9 9 9 9 9 9 9 9 9 9 8 8 8 7 7 7 6 6 6 6 6 6 6 6 6
13 13 12 12 12 12 12 11 11 11 11 11 11 10 10 10 10 9 9 9 9 9 9 9 9 9 9 9 9 8 8 8 7 7 6 6 6 6 6 6 6 6 6
13 13 13 13 12 12 12 12 12 11 11 11 11 11 10 10 10 10 9 9 9 9 9 9 9 9 9 9 9 9 9 8 8 7 7 6 6 6 6 6 6 6 6
13 13 13 13 12 12 12 12 12 12 11 11 11 11 11 10 10 10 10 10 10 10 10 10 10 10 9 9 9 9 9 8 8 8 7 7 6 6 6 6 6 6 6
13 13 13 13 13 12 12 12 12 12 12 12 11 11 11 11 10 10 10 10 10 10 10 10 10 10 10 9 9 9 9 9 8 8 7 7 7 6 6 6 6 6 5
Wind_Speed
10 9 10 10 10 9 8 8 6 5 5 4 4 3 3 3 2 2 2 3 3 3 3 4 4 4 3 3 3 3 3 3 3 1 1 1 1 2 2 1 1 3 5
10 9 9 10 10 10 10 9 8 7 6 5 5 4 3 3 3 2 2 3 3 3 3 3 3 3 4 3 3 4 3 3 3 2 0 1 1 2 1 1 1 0 2
9 9 10 10 10 10 9 9 9 8 8 7 6 5 4 4 3 3 3 3 2 2 3 3 3 4 3 3 3 3 3 3 2 2 1 1 1 2 2 2 2 2 1
9 9 10 10 9 9 9 9 9 9 8 8 7 6 6 5 5 4 3 3 3 3 2 2 3 4 4 4 3 4 4 4 3 2 1 1 1 1 2 2 2 3 2
8 9 10 9 9 9 9 9 9 9 9 8 8 7 6 5 5 5 3 3 3 4 3 3 2 3 4 4 4 4 5 4 3 3 2 1 1 2 1 1 1 1 2
8 9 9 9 9 9 9 9 9 9 9 9 9 8 8 7 8 8 5 4 4 4 4 3 4 4 4 5 5 6 6 5 4 3 2 2 1 1 1 1 1 2 2
8 8 9 9 9 9 9 9 9 9 9 10 10 9 8 9 10 8 8 5 5 5 4 4 4 4 5 4 6 6 5 5 5 5 4 2 2 1 2 2 2 2 1
7 8 8 8 9 8 9 9 9 7 7 8 9 9 8 10 12 10 8 6 6 6 5 5 5 4 4 4 5 6 6 6 5 4 4 2 2 2 2 2 2 2 2
7 7 7 7 8 8 8 8 7 7 8 7 7 9 9 10 13 10 8 5 6 6 5 6 5 4 5 6 6 6 6 5 7 9 9 7 6 6 4 3 3 3 2
5 5 6 6 7 7 7 6 6 6 6 7 8 9 9 10 13 12 9 4 5 5 5 6 7 6 6 6 5 5 5 4 4 5 7 9 8 8 8 4 3 3 2
3 5 6 6 6 6 6 6 6 7 7 8 8 8 9 11 13 14 11 5 5 5 5 5 6 9 9 8 6 4 5 5 5 6 6 6 6 6 6 6 5 3 2
3 5 6 7 6 6 7 7 7 7 8 8 8 8 8 9 11 12 14 11 8 6 5 5 6 11 12 11 8 8 10 8 5 6 5 5 4 4 4 6 8 9 7
3 4 5 6 6 6 7 7 7 7 7 7 7 7 7 7 9 14 13 13 11 7 6 9 11 12 12 10 12 12 9 6 5 5 5 3 2 2 3 3 6 8 10
3 2 3 4 5 5 5 5 5 6 6 6 7 7 6 7 7 7 6 6 8 7 6 9 12 14 11 10 10 8 6 5 5 4 3 3 3 3 4 3 3 3 5
3 2 2 2 2 3 3 3 3 3 3 3 3 4 5 6 7 9 6 5 4 4 5 6 6 6 7 7 6 6 6 6 5 4 4 4 4 4 4 3 3 4 4
2 2 1 1 1 1 2 2 3 3 5 6 5 4 3 5 7 11 11 11 10 8 7 6 6 6 6 6 5 5 5 5 4 4 4 4 4 4 4 4 4 4 5
3 3 2 2 2 1 0 1 2 4 5 6 7 7 7 7 8 9 10 12 12 10 7 6 5 5 5 5 5 4 4 4 4 4 4 4 4 4 4 4 4 4 4
3 3 3 3 3 2 2 1 1 1 2 3 4 6 7 8 8 8 7 7 7 7 5 5 4 4 4 4 4 4 4 4 4 4 4 4 4 3 3 4 3 3 3
2 2 3 3 3 2 2 2 1 1 1 1 2 3 4 5 8 9 7 5 4 4 4 4 3 3 3 3 3 4 4 4 4 4 4 4 4 3 3 3 3 5 3
2 4 3 3 2 2 2 2 2 2 2 2 2 2 1 2 2 3 3 3 3 2 2 2 2 2 2 3 3 3 4 4 4 4 4 4 3 3 3 4 3 3 3
2 2 3 3 3 3 3 3 3 3 3 3 3 3 3 2 1 0 0 0 1 1 1 1 1 1 2 2 2 3 3 3 3 3 3 3 3 3 3 3 3 3 3
2 2 3 3 3 4 4 4 4 4 4 4 3 2 4 3 2 2 2 2 2 2 2 2 1 1 1 1 1 1 2 2 2 2 2 2 2 3 3 3 3 2 3
2 3 3 3 4 4 4 4 4 5 5 5 4 4 4 4 4 4 4 3 3 2 3 3 2 2 2 2 2 2 2 1 0 0 1 2 2 2 2 2 2 2 2
3 3 4 4 4 4 5 5 5 5 5 5 5 5 5 5 5 5 5 4 3 4 5 5 5 4 4 3 2 2 3 3 2 2 1 1 1 2 2 2 2 2 2
3 4 4 4 4 5 5 5 5 5 6 6 5 5 5 5 6 5 5 5 5 5 6 7 6 6 6 6 4 4 3 3 3 3 2 2 2 2 2 2 2 2 2
4 4 4 4 5 5 5 5 6 6 6 6 6 6 6 6 6 6 6 6 5 5 7 8 9 9 8 7 6 5 4 4 4 4 4 3 3 3 3 2 3 3 3
Wind_Direction
9 10 14 14 15 22 27 27 28 32 38 44 62 89 99 101 107 132 158 170 177 188 192 193 194 180 177 174 166 166 174 170 196 232 254 319 357 14 29 46 218 223 230
9 13 16 17 19 22 22 21 24 29 31 38 44 58 70 75 82 100 121 128 144 165 175 173 179 165 159 156 159 167 170 169 174 199 317 3 18 20 30 44 52 148 229
10 15 19 20 20 20 19 20 26 32 35 36 42 48 52 57 66 68 84 97 120 143 151 153 151 144 140 139 146 153 152 149 148 156 148 41 35 31 40 37 40 32 13
13 18 20 17 17 17 19 23 26 30 32 31 35 39 37 42 46 46 54 73 79 79 92 121 134 149 158 156 153 150 138 128 128 129 123 72 51 32 56 43 30 25 16
15 19 14 10 15 21 23 24 26 31 34 32 35 33 27 32 33 36 40 62 71 74 69 76 102 141 159 156 147 144 137 128 125 118 108 79 53 51 53 37 45 17 25
19 16 11 14 20 21 20 23 28 29 28 32 31 28 28 29 31 42 51 59 68 72 71 66 75 85 106 108 127 141 144 140 140 130 121 120 120 108 89 63 60 55 27
18 15 13 16 21 19 22 28 28 25 28 31 28 25 24 18 28 39 49 61 65 59 60 67 76 76 77 85 90 93 94 107 130 141 137 151 154 166 135 94 78 78 61
15 13 12 14 18 19 25 25 22 23 27 28 26 22 23 20 25 38 54 60 66 61 57 62 70 63 72 97 100 89 75 64 80 93 114 125 141 154 147 133 124 93 61
14 11 9 12 19 23 23 18 16 23 28 26 24 25 25 17 23 36 54 59 63 55 49 50 57 62 73 100 105 101 85 68 74 85 84 81 86 92 104 99 86 79 56
7 8 12 19 26 25 20 17 16 24 26 26 30 28 27 21 25 36 51 59 61 53 45 39 42 57 75 94 100 108 104 86 82 72 62 57 59 61 62 72 104 101 93
24 30 27 24 30 27 26 24 22 26 30 29 28 26 26 22 24 36 47 53 61 61 52 39 35 56 70 77 84 91 109 112 93 87 76 62 54 52 48 50 57 83 99
63 48 36 29 31 31 32 29 28 29 33 27 25 23 21 19 23 35 45 54 63 69 59 45 49 62 66 65 70 84 96 95 89 84 76 64 56 48 43 49 59 65 67
82 58 44 40 36 33 37 33 30 29 33 28 28 25 16 15 20 31 41 51 58 66 64 66 65 63 61 58 61 69 74 77 83 82 76 58 39 38 48 52 52 61 59
113 78 54 50 41 36 38 37 38 30 29 28 26 20 14 16 15 13 23 39 49 59 59 60 61 59 57 52 52 51 52 63 78 81 74 48 39 51 48 45 49 43 56
137 121 85 67 58 43 39 34 34 24 24 30 19 13 15 13 5 21 37 40 47 59 62 54 50 46 48 44 45 45 44 50 56 50 62 62 54 56 44 37 48 53 67
158 166 165 148 100 56 27 12 16 24 29 38 37 38 20 27 33 44 47 53 58 68 70 63 57 54 52 47 46 45 41 40 40 52 61 63 65 68 62 49 56 69 73
187 193 187 184 183 199 248 358 348 352 14 27 29 36 46 47 49 53 56 57 55 64 71 66 60 55 52 48 45 45 36 26 36 53 61 61 67 68 72 68 65 67 66
196 200 191 195 197 205 215 226 241 317 343 343 2 25 43 51 50 50 53 60 51 50 62 67 62 55 54 52 47 43 39 36 42 48 53 56 61 71 73 71 68 74 70
196 201 197 196 198 206 211 210 214 226 264 307 334 357 26 48 49 45 50 64 71 61 59 62 58 56 56 56 52 47 46 44 43 47 50 52 55 68 73 71 75 73 72
220 220 196 190 196 200 203 204 212 220 237 262 279 286 341 48 35 24 39 62 78 78 71 67 56 57 61 60 56 52 50 46 42 46 46 48 54 67 77 77 81 83 76
230 240 215 195 205 209 210 214 214 214 227 242 249 239 190 165 184 193 120 125 142 148 139 119 85 67 66 69 65 62 65 56 48 47 46 47 57 67 73 81 86 91 100
219 228 220 219 222 219 219 216 212 218 228 236 245 240 198 180 193 204 220 227 212 199 184 169 168 163 150 131 116 102 87 70 49 39 41 53 63 70 79 83 87 90 98
221 232 237 236 230 232 228 221 218 223 229 230 227 221 209 209 212 214 219 221 208 199 192 183 178 192 190 172 164 165 167 181 194 10 43 64 70 77 87 93 100 100 98
233 237 241 244 238 231 230 231 227 227 229 229 223 219 218 215 215 216 213 207 200 201 197 197 201 205 198 192 189 195 206 216 220 229 225 153 130 120 114 109 106 108 108
240 243 243 242 240 237 235 235 233 231 231 230 226 221 218 213 214 214 206 198 196 202 206 207 209 212 211 208 210 217 220 223 225 225 213 183 152 141 134 133 133 123 126
241 247 248 244 241 237 234 235 235 233 232 233 229 223 217 214 214 210 200 195 197 202 208 211 213 214 214 214 218 221 223 228 229 221 204 179 160 156 147 138 136 130 133
Height
1512 1510 1507 1504 1502 1500 1498 1497 1496 1496 1496 1497 1497 1498 1499 1500 1501 1502 1503 1505 1507 1509 1510 1512 1514 1516 1517 1519 1520 1522 1523 1525 1526 1528 1528 1529 1530 1532 1533 1534 1536 1537 1539
1515 1512 1510 1507 1505 1503 1501 1500 1499 1499 1498 1498 1498 1499 1499 1500 1501 1502 1503 1505 1506 1507 1509 1511 1513 1515 1516 1517 1518 1520 1521 1522 1524 1525 1526 1527 1528 1529 1530 1531 1532 1534 1535
1518 1515 1513 1510 1508 1506 1504 1503 1502 1501 1500 1500 1500 1500 1501 1501 1502 1503 1504 1505 1506 1507 1509 1510 1512 1513 1515 1516 1517 1518 1519 1521 1522 1523 1524 1525 1526 1526 1527 1529 1529 1530 1532
1522 1519 1516 1513 1511 1509 1508 1506 1505 1504 1503 1503 1503 1502 1502 1503 1503 1504 1504 1505 1506 1507 1509 1510 1511 1513 1514 1515 1517 1518 1519 1520 1521 1522 1522 1523 1524 1524 1526 1526 1527 1528 1529
1525 1522 1519 1517 1514 1512 1511 1509 1508 1506 1506 1505 1504 1504 1504 1504 1504 1504 1505 1506 1507 1508 1509 1510 1511 1513 1514 1515 1516 1517 1518 1519 1520 1521 1521 1522 1523 1523 1524 1525 1525 1526 1526
1529 1526 1523 1520 1518 1516 1514 1512 1510 1509 1508 1507 1506 1505 1505 1505 1505 1505 1506 1506 1507 1508 1509 1510 1512 1513 1514 1515 1516 1517 1518 1519 1520 1521 1521 1522 1522 1523 1523 1524 1524 1525 1525
1532 1529 1526 1523 1521 1519 1517 1515 1513 1512 1510 1509 1508 1507 1506 1506 1506 1506 1506 1507 1508 1509 1510 1511 1512 1513 1515 1516 1517 1518 1519 1519 1520 1521 1521 1522 1522 1523 1523 1523 1524 1524 1524
1535 1532 1529 1527 1524 1522 1520 1518 1516 1515 1513 1511 1510 1509 1508 1508 1507 1507 1507 1507 1508 1509 1511 1512 1513 1514 1515 1516 1517 1518 1519 1520 1520 1521 1522 1522 1523 1523 1523 1524 1523 1523 1524
1538 1535 1532 1530 1528 1525 1523 1521 1520 1518 1516 1514 1513 1512 1511 1510 1509 1509 1509 1509 1510 1511 1512 1513 1514 1515 1516 1517 1518 1519 1520 1520 1521 1522 1522 1523 1523 1524 1524 1524 1524 1524 1524
1541 1538 1536 1533 1531 1528 1526 1524 1523 1521 1519 1517 1516 1514 1513 1512 1511 1511 1511 1511 1511 1512 1513 1514 1515 1516 1516 1517 1518 1519 1520 1521 1522 1522 1523 1523 1524 1524 1524 1524 1524 1524 1524
1544 1541 1539 1536 1534 1532 1530 1528 1526 1524 1522 1520 1518 1517 1516 1514 1514 1513 1513 1513 1513 1514 1514 1515 1516 1516 1517 1518 1519 1520 1521 1521 1522 1523 1523 1524 1524 1524 1524 1524 1524 1524 1524
1546 1544 1542 1539 1537 1535 1533 1531 1529 1527 1525 1523 1522 1520 1519 1517 1516 1516 1515 1515 1515 1516 1516 1516 1517 1517 1518 1519 1519 1520 1521 1522 1523 1523 1524 1524 1525 1525 1525 1525 1525 1524 1525
1548 1546 1544 1542 1540 1538 1537 1535 1533 1531 1529 1527 1525 1523 1522 1520 1519 1519 1518 1518 1518 1518 1518 1518 1518 1519 1519 1520 1520 1521 1522 1523 1523 1524 1525 1525 1525 1525 1526 1525 1525 1525 1525
1550 1548 1546 1545 1543 1542 1540 1538 1536 1534 1532 1530 1528 1526 1525 1524 1522 1521 1521 1520 1520 1520 1520 1520 1521 1521 1521 1521 1522 1522 1523 1524 1524 1525 1525 1526 1526 1526 1526 1526 1526 1526 1526
1551 1549 1548 1547 1546 1544 1543 1541 1539 1537 1535 1533 1531 1530 1528 1526 1525 1524 1523 1523 1522 1522 1522 1522 1522 1523 1523 1523 1523 1524 1524 1525 1525 1526 1526 1526 1527 1527 1527 1527 1527 1527 1527
1551 1550 1549 1548 1547 1546 1545 1544 1542 1540 1538 1537 1535 1533 1531 1530 1528 1527 1526 1525 1524 1524 1524 1524 1524 1524 1524 1524 1524 1525 1525 1525 1526 1526 1527 1527 1527 1528 1528 1528 1528 1528 1527
1551 1551 1550 1549 1549 1548 1547 1546 1544 1543 1541 1539 1537 1535 1534 1532 1530 1529 1528 1527 1526 1526 1526 1525 1525 1525 1526 1526 1526 1526 1526 1526 1527 1527 1527 1528 1528 1528 1528 1528 1528 1528 1528
1551 1551 1550 1549 1549 1549 1548 1547 1546 1544 1543 1541 1539 1537 1536 1534 1532 1531 1530 1529 1528 1528 1527 1527 1527 1527 1527 1527 1527 1527 1527 1527 1527 1528 1528 1528 1529 1529 1529 1529 1529 1529 1529
1551 1550 1550 1549 1549 1549 1548 1547 1546 1545 1544 1543 1541 1539 1537 1536 1534 1533 1532 1531 1530 1529 1529 1528 1528 1528 1528 1528 1527 1527 1527 1527 1528 1528 1528 1528 1529 1529 1529 1529 1530 1530 1530
1550 1550 1549 1549 1549 1548 1548 1547 1547 1546 1545 1544 1542 1541 1539 1537 1535 1534 1533 1532 1531 1530 1530 1529 1529 1529 1529 1528 1528 1528 1528 1528 1528 1528 1528 1529 1529 1529 1530 1530 1530 1530 1530
1549 1549 1548 1548 1548 1548 1547 1547 1546 1546 1545 1544 1543 1541 1540 1538 1537 1535 1534 1533 1532 1531 1531 1530 1530 1529 1529 1529 1528 1528 1528 1528 1528 1528 1529 1529 1529 1529 1529 1530 1530 1530 1530
1546 1546 1546 1546 1546 1546 1546 1546 1545 1545 1544 1543 1543 1542 1540 1539 1537 1536 1535 1533 1532 1532 1531 1531 1530 1530 1529 1529 1528 1528 1528 1528 1528 1528 1528 1529 1529 1529 1529 1529 1530 1530 1530
1544 1544 1544 1544 1544 1544 1544 1544 1544 1543 1543 1542 1542 1541 1540 1539 1537 1536 1535 1533 1532 1532 1531 1530 1530 1530 1529 1529 1528 1528 1528 1528 1528 1528 1528 1528 1529 1529 1529 1529 1529 1529 1530
1541 1541 1541 1541 1541 1541 1541 1541 1541 1541 1541 1540 1540 1539 1539 1538 1537 1535 1534 1533 1532 1531 1531 1530 1530 1529 1529 1528 1528 1528 1528 1527 1527 1527 1528 1528 1528 1528 1529 1529 1529 1529 1529
1538 1538 1537 1537 1537 1538 1538 1538 1538 1538 1538 1538 1538 1537 1537 1536 1535 1534 1533 1532 1531 1531 1530 1529 1529 1529 1528 1528 1528 1527 1527 1527 1527 1527 1527 1527 1527 1528 1528 1528 1528 1528 1529
1534 1534 1534 1534 1534 1534 1534 1534 1534 1535 1535 1535 1535 1534 1534 1533 1533 1532 1531 1531 1530 1529 1529 1528 1528 1528 1527 1527 1527 1526 1526 1526 1526 1526 1526 1526 1527 1527 1527 1527 1527 1528 1528